sat.trackr.live / text

‹ back to catalog

STARLINK-34563

NORAD 64708 · 2025-142N

PAYLOAD ACTIVE UNKNOWN

§ Identity

Operator
Country
US
Launch date
2025-06-28
Launch site
AFWTR
Launch vehicle
Mass (kg)
RCS (m²)

Purposes: comms

External: N2YO · Heavens-Above · Gunter

§ Orbital elements

Epoch: 2026-05-25T04:24:21.870144Z

Period
96.11 min
Inclination
69.9997°
Eccentricity
0.0003532
Mean motion
14.98322015 rev/d
Perigee alt
569.6 km
Apogee alt
574.5 km
Semi-major
6,950.2 km
B*
-2.0962e-5
RAAN
121.7930°
Arg perigee
268.4132°
Mean anomaly
91.6622°
Rev number
5,091

§ Raw data

STARLINK-345631 64708U 25142N   26145.18358646 -.00000343  00000+0 -20962-4 0  99922 64708  69.9997 121.7930 0003532 268.4132  91.6622 14.98322015 50914

JSON: /api/v1/satellites/64708 · /tle

For live sub-satellite position, see the globe view (requires WebGL).

§ Visibility from observer

Set your observer location to see the next 7 days of passes ≥ 10°. The values pass through the URL so the page stays shareable.

No JS? Fill the form by hand. The geolocation button needs JavaScript.